TimeEST,TemperatureF,Dew PointF,Humidity,Sea Level PressureIn,VisibilityMPH,Wind Direction,Wind SpeedMPH,Gust SpeedMPH,PrecipitationIn,Events,Conditions,WindDirDegrees,DateUTC
12:53 AM,43.0,21.0,42,30.15,10.0,NW,8.1,-,N/A,,Clear,320,2013-02-20 05:53:00
1:53 AM,41.0,19.9,43,30.16,10.0,NNW,9.2,-,N/A,,Clear,330,2013-02-20 06:53:00
2:53 AM,37.9,19.9,48,30.15,10.0,NW,5.8,-,N/A,,Clear,310,2013-02-20 07:53:00
3:53 AM,37.0,19.9,50,30.14,10.0,NNW,6.9,-,N/A,,Clear,330,2013-02-20 08:53:00
4:53 AM,35.1,19.9,54,30.15,10.0,NW,4.6,-,N/A,,Clear,320,2013-02-20 09:53:00
5:53 AM,30.9,21.9,69,30.18,10.0,West,4.6,-,N/A,,Clear,270,2013-02-20 10:53:00
6:53 AM,28.9,21.9,75,30.20,10.0,West,5.8,-,N/A,,Clear,270,2013-02-20 11:53:00
7:53 AM,33.1,23.0,66,30.22,10.0,West,5.8,-,N/A,,Clear,280,2013-02-20 12:53:00
8:53 AM,39.9,21.0,47,30.21,10.0,NW,6.9,-,N/A,,Clear,320,2013-02-20 13:53:00
9:53 AM,45.0,18.0,34,30.20,10.0,North,10.4,-,N/A,,Clear,360,2013-02-20 14:53:00
10:53 AM,48.2,14.0,25,30.20,10.0,NNW,9.2,-,N/A,,Clear,330,2013-02-20 15:53:00
11:53 AM,52.0,12.9,21,30.16,10.0,Calm,Calm,-,N/A,,Clear,0,2013-02-20 16:53:00
12:53 PM,55.9,12.9,18,30.14,10.0,NW,9.2,-,N/A,,Clear,310,2013-02-20 17:53:00
1:53 PM,57.9,12.0,16,30.12,10.0,Calm,Calm,-,N/A,,Clear,0,2013-02-20 18:53:00
2:53 PM,60.1,15.1,17,30.12,10.0,West,10.4,16.1,N/A,,Clear,280,2013-02-20 19:53:00
3:53 PM,57.0,14.0,18,30.12,10.0,WNW,9.2,-,N/A,,Clear,300,2013-02-20 20:53:00
4:53 PM,55.9,16.0,21,30.12,10.0,NW,9.2,-,N/A,,Clear,320,2013-02-20 21:53:00
5:53 PM,55.0,16.0,22,30.15,10.0,NW,8.1,-,N/A,,Clear,320,2013-02-20 22:53:00
6:53 PM,52.0,17.1,25,30.12,10.0,North,4.6,-,N/A,,Clear,10,2013-02-20 23:53:00
7:53 PM,48.2,23.0,37,30.11,10.0,WNW,3.5,-,N/A,,Clear,300,2013-02-21 00:53:00
8:53 PM,46.0,19.0,34,30.13,10.0,WNW,3.5,-,N/A,,Clear,300,2013-02-21 01:53:00
9:53 PM,42.1,21.0,43,30.14,10.0,WNW,3.5,-,N/A,,Clear,300,2013-02-21 02:53:00
10:53 PM,41.0,23.0,49,30.14,10.0,WNW,4.6,-,N/A,,Clear,290,2013-02-21 03:53:00